{"data":{"norad_id":65699,"epoch":"2026-05-24T19:28:06.873888Z","epoch_age_seconds":98095,"freshness":"FRESH","line1":"1 65699U 25212Z   26144.81119067  .00016330  00000+0  56201-3 0  9996","line2":"2 65699  53.1600 352.4088 0001000  93.0575 267.0540 15.30214780 38840","mean_motion":15.3021478,"eccentricity":0.0001,"inclination_deg":53.16,"raan_deg":352.4088,"arg_perigee_deg":93.0575,"mean_anomaly_deg":267.054,"bstar":0.00056201,"rev_number":3884,"period_min":94.104436764099,"perigee_km":474.48560856471,"apogee_km":475.85627015258,"semimajor_km":6853.3079393586,"source":"CELESTRAK","updated_at":"2026-05-25T13:38:20.898679Z"}}